Back to catalog

THORAD DELTA 1 DEB

AliveSSO
NORAD 9984·DEBRIS·🇺🇸 United States

Launched Nov 15, 1974 from Vandenberg Space Force Base

Loading…

Next Passes (next 24 hours)

TLE

FreshSource: Space-Track

Epoch: Sep 13, 2026, 23:12 UTC

1  9984U 74089EB  26256.96675148 -.00000043  00000-0  25525-4 0  9996
2  9984 102.3435 255.6370 0095159 350.1007  37.1922 12.40461282348316

Track THORAD DELTA 1 DEB in real time with AllMySat

Download on the App Store